NOAA 16 DEB, 41536

Orbit data source: Space-Track

NOAA 16 DEB, 41536 is space debris in SSO originally from a launch on Thu, 21 Sep 2000 UTC launched from the Air Force Western Test Range (AFWTR). Debris objects in space refer to the collection of defunct objects orbiting the Earth. Examples of debris include non-operational satellites, rocket bodies, and fragments generated from explosions, collisions, or faulty payload assembly.

Loading next visibility...
Identifier
41536, 2000-055NL
Orbit
SSO
Country
Flag of USUS
Related business
Manufacturer
Unknown
Mission
Spacecraft
Bus & Motor
Unknown
Mass
Unknown
Launch date (UTC)
2000-09-21 (26 years ago)
Launch vehicle
Unknown
Launch site
Air Force Western Test Range (AFWTR)
Object type
Payload
Rocket body
Debris
Shape & HBR
Unknown shape, 0.1 m
Radar Cross Section
Medium (>0.1 m² and <1 m²)

Expand to show TLE details & history
Last TLE update: 1 week ago

TLE from 1 week ago
0 NOAA 16 DEB
1 41536U 00055NL  26153.08605247  .00005276  00000-0  18027-2 0  9998
2 41536  98.7351 256.9629 0011416 220.8000 139.2332 14.36727329537291
Epoch: 2026-06-02T02:03Z
TLE epoch observation values (Epoch: 2026-06-02T02:03:54.933Z)
Latitude
0.00001°
Longitude
-24.58007°
Altitude
778.453 km
Speed
7.461 km/s
True Right ascension
17h 07m 51s
True Declination
0° 00' 00"
Sunlit
Object was in full shadow at epoch
Visualization orbit readout
Latitude
Unknown
Longitude
Unknown
Altitude
Unknown
Speed
Unknown
Apparent Right ascension
Unknown
Apparent Declination
Unknown
Sunlit
N/A
Visualization observer readout
Local Sidereal Time
19:13:14
Azimuth
Unknown
Elevation
Unknown
Doppler factor
Unknown
Orbital elements
Apogee altitude
774.626 km
Perigee altitude
758.313 km
Semi-major axis
7,144.606 km
Eccentricity
0.00114
Inclination
98.7351°
RAAN
256.9629°
Arg. of periapsis
220.8°
True anomaly
139.31853°
Mean anomaly
139.2332°
Eccentric anomaly
139.27587°
Mean motion
3.59398 °/min
Orbital period
100.17 mins
BSTAR
0.0018027
Loading maneuver chart data...
Computing Atmospheric mass density...
Loading historical data...
Loading historical data...
Loading historical data...
Loading historical data...
Loading historical data...
Loading historical data...
Loading historical data...

Documentation

Showing up to 5 results
|